• en France
  • Liste des pays
  • À 7 jours
  • Température de l'eau
  • Carte satellitaire
  • Carte météo
  • Widgets météo
  • user-avatar
    Se connecter

    Météo par heure à Heredia

    Ce jour, 21 Octobre, Dimanche

    Heure Température Précipitation Vent Pression Humidité
    00:00 +19°C° 0 mm 1 m/s 661 mmHg 89%
    01:00 +19°C° 0 mm 1 m/s 661 mmHg 89%
    02:00 +18°C° 0 mm 1 m/s 661 mmHg 89%
    03:00 +18°C° 0 mm 1 m/s 661 mmHg 89%
    04:00 +18°C° 0 mm 1 m/s 661 mmHg 89%
    05:00 +19°C° 0 mm 1 m/s 662 mmHg 89%
    06:00 +19°C° 0 mm 1 m/s 662 mmHg 89%
    07:00 +21°C° 0 mm 1 m/s 663 mmHg 82%
    08:00 +23°C° 0 mm 1 m/s 664 mmHg 75%
    09:00 +25°C° 0 mm 1 m/s 665 mmHg 68%
    10:00 +25°C° 0.3 mm 1 m/s 664 mmHg 70%
    11:00 +25°C° 0.3 mm 2 m/s 664 mmHg 71%
    12:00 +25°C° 0.3 mm 2 m/s 663 mmHg 73%
    13:00 +24°C° 1 mm 2 m/s 663 mmHg 75%
    14:00 +24°C° 1 mm 2 m/s 662 mmHg 77%
    15:00 +24°C° 1 mm 1 m/s 662 mmHg 79%
    16:00 +22°C° 0.6 mm 1 m/s 661 mmHg 83%
    17:00 +21°C° 0.6 mm 1 m/s 661 mmHg 88%
    18:00 +20°C° 0.6 mm 1 m/s 661 mmHg 92%
    19:00 +20°C° 0 mm 1 m/s 662 mmHg 92%
    20:00 +19°C° 0 mm 1 m/s 662 mmHg 91%
    21:00 +19°C° 0 mm 1 m/s 662 mmHg 91%
    22:00 +19°C° 0 mm 1 m/s 662 mmHg 90%
    23:00 +19°C° 0 mm 1 m/s 662 mmHg 89%

    Demain, 22 Octobre, Lundi

    Heure Température Précipitation Vent Pression Humidité
    00:00 +18°C° 0 mm 1 m/s 662 mmHg 88%
    01:00 +18°C° 0 mm 1 m/s 662 mmHg 88%
    02:00 +18°C° 0 mm 1 m/s 661 mmHg 87%
    03:00 +18°C° 0 mm 1 m/s 661 mmHg 87%
    04:00 +18°C° 0 mm 1 m/s 661 mmHg 87%
    05:00 +18°C° 0 mm 1 m/s 662 mmHg 86%
    06:00 +18°C° 0 mm 1 m/s 662 mmHg 86%
    07:00 +20°C° 0 mm 1 m/s 663 mmHg 79%
    08:00 +23°C° 0 mm 1 m/s 664 mmHg 72%
    09:00 +25°C° 0 mm 1 m/s 665 mmHg 65%
    10:00 +25°C° 0.1 mm 1 m/s 665 mmHg 64%
    11:00 +26°C° 0.1 mm 2 m/s 664 mmHg 62%
    12:00 +27°C° 0.1 mm 2 m/s 664 mmHg 60%
    13:00 +26°C° 0.7 mm 2 m/s 664 mmHg 65%
    14:00 +25°C° 0.7 mm 2 m/s 663 mmHg 70%
    15:00 +24°C° 0.7 mm 1 m/s 662 mmHg 76%
    16:00 +23°C° 0.4 mm 1 m/s 662 mmHg 81%
    17:00 +22°C° 0.4 mm 1 m/s 662 mmHg 86%
    18:00 +20°C° 0.4 mm 1 m/s 662 mmHg 92%
    19:00 +20°C° 0 mm 1 m/s 662 mmHg 92%
    20:00 +20°C° 0 mm 1 m/s 663 mmHg 92%
    21:00 +19°C° 0 mm 1 m/s 663 mmHg 93%
    22:00 +19°C° 0 mm 1 m/s 663 mmHg 92%
    23:00 +19°C° 0 mm 1 m/s 663 mmHg 90%

    Après-demain, 23 Octobre, Mardi

    Heure Température Précipitation Vent Pression Humidité
    00:00 +18°C° 0 mm 1 m/s 662 mmHg 89%
    01:00 +18°C° 0 mm 1 m/s 662 mmHg 88%
    02:00 +18°C° 0 mm 1 m/s 662 mmHg 87%
    03:00 +18°C° 0 mm 1 m/s 661 mmHg 85%
    04:00 +18°C° 0 mm 1 m/s 661 mmHg 85%
    05:00 +18°C° 0 mm 1 m/s 662 mmHg 85%
    06:00 +18°C° 0 mm 1 m/s 662 mmHg 85%
    07:00 +20°C° 0 mm 1 m/s 663 mmHg 77%
    08:00 +23°C° 0 mm 1 m/s 664 mmHg 69%
    09:00 +25°C° 0 mm 1 m/s 665 mmHg 62%
    10:00 +26°C° 0 mm 1 m/s 665 mmHg 60%
    11:00 +27°C° 0 mm 2 m/s 665 mmHg 58%
    12:00 +27°C° 0 mm 2 m/s 664 mmHg 56%
    13:00 +26°C° 0.3 mm 2 m/s 664 mmHg 62%
    14:00 +25°C° 0.3 mm 2 m/s 663 mmHg 67%
    15:00 +24°C° 0.3 mm 1 m/s 662 mmHg 73%
    16:00 +23°C° 0.2 mm 1 m/s 662 mmHg 79%
    17:00 +22°C° 0.2 mm 1 m/s 662 mmHg 85%
    18:00 +21°C° 0.2 mm 1 m/s 662 mmHg 91%
    19:00 +20°C° 0 mm 1 m/s 662 mmHg 92%
    20:00 +20°C° 0 mm 1 m/s 663 mmHg 92%
    21:00 +19°C° 0 mm 1 m/s 663 mmHg 93%
    22:00 +19°C° 0 mm 1 m/s 663 mmHg 92%
    23:00 +19°C° 0 mm 1 m/s 663 mmHg 91%

    24 Octobre, Mercredi

    Heure Température Précipitation Vent Pression Humidité
    00:00 +18°C° 0 mm 1 m/s 663 mmHg 90%
    01:00 +18°C° 0 mm 1 m/s 662 mmHg 88%
    02:00 +18°C° 0 mm 1 m/s 662 mmHg 86%
    03:00 +16°C° 0 mm 1 m/s 661 mmHg 84%
    04:00 +16°C° 0 mm 1 m/s 662 mmHg 82%
    05:00 +16°C° 0 mm 1 m/s 662 mmHg 80%
    06:00 +16°C° 0 mm 1 m/s 662 mmHg 78%
    07:00 +20°C° 0 mm 1 m/s 663 mmHg 71%
    08:00 +23°C° 0 mm 1 m/s 664 mmHg 65%
    09:00 +26°C° 0 mm 1 m/s 665 mmHg 58%
    10:00 +26°C° 0 mm 1 m/s 665 mmHg 57%
    11:00 +27°C° 0 mm 2 m/s 665 mmHg 57%
    12:00 +27°C° 0 mm 2 m/s 664 mmHg 56%
    13:00 +26°C° 0.1 mm 2 m/s 663 mmHg 62%
    14:00 +25°C° 0.1 mm 2 m/s 663 mmHg 68%
    15:00 +24°C° 0.1 mm 2 m/s 662 mmHg 73%
    16:00 +23°C° 0.2 mm 1 m/s 662 mmHg 80%
    17:00 +22°C° 0.2 mm 1 m/s 662 mmHg 87%
    18:00 +18°C° 0.2 mm 0 m/s 662 mmHg 94%
    19:00 +18°C° 0.1 mm 0 m/s 662 mmHg 94%
    20:00 +18°C° 0.1 mm 0 m/s 663 mmHg 94%
    21:00 +18°C° 0.1 mm 0 m/s 663 mmHg 94%
    22:00 +17°C° 0 mm 0 m/s 663 mmHg 94%
    23:00 +17°C° 0 mm 0 m/s 662 mmHg 93%

    25 Octobre, Jeudi

    Heure Température Précipitation Vent Pression Humidité
    00:00 +17°C° 0 mm 0 m/s 662 mmHg 92%
    01:00 +18°C° 0 mm 1 m/s 661 mmHg 90%
    02:00 +18°C° 0 mm 1 m/s 661 mmHg 89%
    03:00 +18°C° 0 mm 1 m/s 661 mmHg 87%
    04:00 +18°C° 0 mm 1 m/s 661 mmHg 86%
    05:00 +18°C° 0 mm 1 m/s 662 mmHg 84%
    06:00 +18°C° 0 mm 1 m/s 662 mmHg 83%
    07:00 +20°C° 0 mm 1 m/s 663 mmHg 76%
    08:00 +23°C° 0 mm 1 m/s 664 mmHg 68%
    09:00 +26°C° 0 mm 1 m/s 665 mmHg 61%
    10:00 +26°C° 0.1 mm 1 m/s 664 mmHg 62%
    11:00 +26°C° 0.1 mm 1 m/s 664 mmHg 63%
    12:00 +26°C° 0.1 mm 2 m/s 663 mmHg 64%
    13:00 +25°C° 0.8 mm 2 m/s 662 mmHg 71%
    14:00 +24°C° 0.8 mm 1 m/s 662 mmHg 77%
    15:00 +23°C° 0.8 mm 1 m/s 661 mmHg 83%
    16:00 +22°C° 0.9 mm 1 m/s 661 mmHg 87%
    17:00 +21°C° 0.9 mm 1 m/s 661 mmHg 91%
    18:00 +18°C° 0.9 mm 0 m/s 661 mmHg 95%
    19:00 +18°C° 0.2 mm 0 m/s 662 mmHg 95%
    20:00 +18°C° 0.2 mm 0 m/s 662 mmHg 94%
    21:00 +18°C° 0.2 mm 0 m/s 662 mmHg 94%
    22:00 +17°C° 0.1 mm 0 m/s 662 mmHg 94%
    23:00 +17°C° 0.1 mm 0 m/s 662 mmHg 93%

    26 Octobre, Vendredi

    Heure Température Précipitation Vent Pression Humidité
    00:00 +17°C° 0.1 mm 0 m/s 661 mmHg 93%
    01:00 +17°C° 0 mm 0 m/s 661 mmHg 92%
    02:00 +16°C° 0 mm 0 m/s 661 mmHg 91%
    03:00 +18°C° 0 mm 1 m/s 661 mmHg 90%
    04:00 +18°C° 0 mm 1 m/s 661 mmHg 89%
    05:00 +18°C° 0 mm 1 m/s 661 mmHg 88%
    06:00 +18°C° 0 mm 1 m/s 662 mmHg 87%
    07:00 +21°C° 0 mm 1 m/s 663 mmHg 80%
    08:00 +23°C° 0 mm 1 m/s 664 mmHg 72%
    09:00 +25°C° 0 mm 1 m/s 664 mmHg 65%
    10:00 +26°C° 0.1 mm 1 m/s 664 mmHg 65%
    11:00 +26°C° 0.1 mm 2 m/s 663 mmHg 64%
    12:00 +26°C° 0.1 mm 2 m/s 663 mmHg 64%
    13:00 +25°C° 0.5 mm 2 m/s 662 mmHg 70%
    14:00 +24°C° 0.5 mm 2 m/s 662 mmHg 76%
    15:00 +23°C° 0.5 mm 2 m/s 661 mmHg 81%
    16:00 +22°C° 0.7 mm 1 m/s 661 mmHg 86%
    17:00 +21°C° 0.7 mm 1 m/s 661 mmHg 90%
    18:00 +18°C° 0.7 mm 0 m/s 662 mmHg 95%
    19:00 +18°C° 0.3 mm 0 m/s 662 mmHg 95%
    20:00 +18°C° 0.3 mm 0 m/s 662 mmHg 95%
    21:00 +18°C° 0.3 mm 0 m/s 663 mmHg 94%
    22:00 +18°C° 0.1 mm 0 m/s 662 mmHg 94%
    23:00 +17°C° 0.1 mm 0 m/s 662 mmHg 93%
    Voir plus